DW0809 Weather Reports


Display with metric or nautical units.
time (UTC)temp
F
wind
direction
speed
MPH
gust
MPH
rain 1hr
in
rain 24hr
in
rain mn
in
humidity
%
barometer
mb
20260902185536 94 203 5.0 9.0 0.00 0.00 0.00 48 1012.8
20260902184516 95 203 5.0 10.0 0.00 0.00 0.00 48 1013.0
20260902183515 94 158 5.0 11.0 0.00 0.00 0.00 48 1013.1
20260902182515 94 180 4.0 12.0 0.00 0.00 0.00 50 1013.4
20260902181515 94 158 5.0 10.0 0.00 0.00 0.00 50 1013.4
20260902180516 94 225 4.0 11.0 0.00 0.00 0.00 49 1013.6
20260902175515 94 180 4.0 10.0 0.00 0.00 0.00 51 1013.6
20260902174515 93 203 4.0 11.0 0.00 0.00 0.00 51 1013.7
20260902173536 93 203 4.0 12.0 0.00 0.00 0.00 51 1013.8
20260902172515 92 203 4.0 9.0 0.00 0.00 0.00 51 1013.8
20260902171515 92 203 4.0 8.0 0.00 0.00 0.00 54 1013.9
20260902170556 91 203 4.0 8.0 0.00 0.00 0.00 54 1014.0
20260902165536 91 203 4.0 11.0 0.00 0.00 0.00 55 1013.9
20260902164515 90 203 5.0 8.0 0.00 0.00 0.00 55 1013.9
20260902163516 89 158 5.0 10.0 0.00 0.00 0.00 54 1013.8
20260902162515 89 203 4.0 10.0 0.00 0.00 0.00 57 1013.9
20260902161515 87 203 5.0 10.0 0.00 0.00 0.00 57 1013.9
20260902160515 86 158 3.0 7.0 0.00 0.00 0.00 66 1013.9
20260902155515 84 203 2.0 4.0 0.00 0.00 0.00 67 1013.9
20260902154515 83 180 2.0 7.0 0.00 0.00 0.00 68 1013.9
20260902153517 83 158 2.0 4.0 0.00 0.00 0.00 67 1013.9
20260902152517 83 158 3.0 9.0 0.00 0.00 0.00 67 1014.0
20260902151517 82 180 2.0 5.0 0.00 0.00 0.00 70 1014.0
20260902150517 82 135 2.0 6.0 0.00 0.00 0.00 70 1014.0
20260902145517 82 135 2.0 4.0 0.00 0.00 0.00 68 1014.0
20260902144517 80 158 3.0 6.0 0.00 0.00 0.00 69 1013.8
20260902143517 78 158 1.0 4.0 0.00 0.00 0.00 77 1013.8
20260902142517 78 135 1.0 3.0 0.00 0.00 0.00 77 1014.0
20260902141517 78 0.0 1.0 0.00 0.00 0.00 77 1014.1
20260902140517 78 135 1.0 2.0 0.00 0.00 0.00 75 1014.2
20260902135517 79 135 1.0 2.0 0.00 0.00 0.00 72 1014.1
20260902134517 80 113 1.0 2.0 0.00 0.00 0.00 71 1014.3
20260902133538 80 0.0 2.0 0.00 0.00 0.00 72 1014.4
20260902132517 78 0.0 2.0 0.00 0.00 0.00 74 1014.7
20260902131517 76 0.0 1.0 0.00 0.00 0.00 76 1014.6
20260902130517 75 0.0 1.0 0.00 0.00 0.00 77 1014.2
20260902125517 75 158 1.0 2.0 0.00 0.00 0.00 78 1014.3
20260902124517 74 0.0 1.0 0.00 0.00 0.00 77 1014.3
20260902123517 74 0.0 1.0 0.00 0.00 0.00 78 1014.2
20260902122517 73 0.0 2.0 0.00 0.00 0.00 79 1014.2
20260902121517 73 0.0 1.0 0.00 0.00 0.00 79 1014.0
20260902120517 73 0.0 1.0 0.00 0.00 0.00 79 1014.0
20260902115517 74 0.0 1.0 0.00 0.00 0.00 79 1013.9
20260902114517 74 0.0 1.0 0.00 0.00 0.00 78 1013.9
20260902113517 74 113 1.0 3.0 0.00 0.00 0.00 78 1014.0
20260902112517 75 113 1.0 2.0 0.00 0.00 0.00 75 1014.0
20260902111537 76 0.0 0.0 0.00 0.00 0.00 73 1013.9
20260902110517 77 0.0 2.0 0.00 0.00 0.00 71 1013.8
20260902105537 78 135 1.0 3.0 0.00 0.00 0.00 68 1013.8
20260902104517 78 158 2.0 5.0 0.00 0.00 0.00 67 1013.9
20260902103517 77 158 2.0 4.0 0.00 0.00 0.00 69 1014.0
20260902102517 76 158 2.0 4.0 0.00 0.00 0.00 72 1014.2
20260902101517 75 158 1.0 3.0 0.00 0.00 0.00 75 1014.1
20260902100517 76 158 1.0 2.0 0.00 0.00 0.00 74 1014.4
20260902095517 77 0.0 1.0 0.00 0.00 0.00 72 1014.4
20260902094517 78 0.0 2.0 0.00 0.00 0.00 69 1014.5
20260902093517 79 0.0 1.0 0.00 0.00 0.00 64 1014.6
20260902092517 79 158 1.0 3.0 0.00 0.00 0.00 64 1014.5
20260902091517 78 180 1.0 3.0 0.00 0.00 0.00 65 1014.4
20260902090517 78 270 2.0 6.0 0.00 0.00 0.00 67 1014.5
20260902085537 77 180 1.0 5.0 0.00 0.00 0.00 68 1014.4
20260902084517 76 203 1.0 4.0 0.00 0.00 0.00 73 1014.2
20260902083516 77 293 1.0 3.0 0.00 0.00 0.00 72 1014.6
20260902082517 77 0.0 2.0 0.00 0.00 0.00 69 1014.1
20260902081516 78 158 1.0 3.0 0.00 0.00 0.00 69 1014.0
20260902080517 78 158 2.0 4.0 0.00 0.00 0.00 67 1013.8
20260902075516 79 158 2.0 6.0 0.00 0.00 0.00 67 1013.8
20260902074516 79 158 3.0 7.0 0.00 0.00 0.00 65 1013.7
20260902073536 79 158 3.0 6.0 0.00 0.00 0.00 65 1013.7
20260902072516 79 180 2.0 7.0 0.00 0.00 0.00 65 1013.7
20260902071537 79 158 2.0 4.0 0.00 0.00 0.00 66 1013.7
20260902070537 79 180 2.0 5.0 0.00 0.00 0.00 66 1013.7
20260902065536 79 180 3.0 6.0 0.00 0.00 0.00 66 1013.7
20260902064516 79 158 3.0 7.0 0.00 0.00 0.00 66 1013.7
20260902063517 79 158 3.0 6.0 0.00 0.00 0.00 67 1013.6
20260902062516 80 180 2.0 7.0 0.00 0.00 0.00 66 1013.4
20260902061516 80 158 2.0 4.0 0.00 0.00 0.00 66 1013.5
20260902060516 80 158 3.0 6.0 0.00 0.00 0.00 65 1013.3
20260902055537 80 158 3.0 8.0 0.00 0.00 0.00 65 1013.2
20260902054536 81 158 3.0 7.0 0.00 0.00 0.00 65 1013.2
20260902053536 81 158 3.0 5.0 0.00 0.00 0.00 65 1013.3
20260902052516 81 158 3.0 5.0 0.00 0.00 0.00 65 1013.4
20260902051516 81 158 3.0 7.0 0.00 0.00 0.00 65 1013.4
20260902050516 81 158 2.0 5.0 0.00 0.00 0.00 65 1013.5
20260902045517 82 158 2.0 5.0 0.00 0.00 0.00 65 1013.4
20260902044517 82 158 3.0 6.0 0.00 0.00 0.00 65 1013.4
20260902043517 82 158 2.0 4.0 0.00 0.00 0.00 66 1013.4
20260902042517 82 158 2.0 4.0 0.00 0.00 0.00 66 1013.3
20260902041516 83 158 2.0 4.0 0.00 0.00 0.00 66 1013.4
20260902040537 83 158 2.0 5.0 0.00 0.00 0.00 65 1013.5
20260902035517 83 158 1.0 3.0 0.00 0.00 0.00 65 1013.5
20260902034517 84 158 1.0 3.0 0.00 0.00 0.00 65 1013.4
20260902033516 84 158 2.0 5.0 0.00 0.00 0.00 65 1013.4
20260902032516 84 158 2.0 4.0 0.00 0.00 0.00 64 1013.3
20260902031516 85 180 2.0 5.0 0.00 0.00 0.00 65 1013.3
20260902030517 85 180 2.0 5.0 0.00 0.00 0.00 65 1013.1
20260902025557 85 180 2.0 5.0 0.00 0.00 0.00 65 1013.0
20260902024517 86 158 2.0 5.0 0.00 0.00 0.00 64 1013.0
20260902023517 86 158 1.0 3.0 0.00 0.00 0.00 63 1012.9
20260902022517 87 158 2.0 4.0 0.00 0.00 0.00 62 1012.7
20260902021516 87 158 1.0 3.0 0.00 0.00 0.00 62 1012.6
20260902020516 87 158 1.0 3.0 0.00 0.00 0.00 61 1012.5
20260902015517 88 158 1.0 3.0 0.00 0.00 0.00 60 1012.2
20260902014536 88 158 1.0 3.0 0.00 0.00 0.00 59 1012.2
20260902013537 88 158 1.0 3.0 0.00 0.00 0.00 59 1012.0
20260902012517 89 158 2.0 4.0 0.00 0.00 0.00 58 1011.8
20260902011517 89 158 2.0 5.0 0.00 0.00 0.00 58 1011.8
20260902010516 90 158 2.0 6.0 0.00 0.00 0.00 57 1011.8
20260902005516 90 158 2.0 5.0 0.00 0.00 0.00 57 1011.7
20260902004516 91 158 2.0 4.0 0.00 0.00 0.00 56 1011.9
20260902003516 92 158 2.0 7.0 0.00 0.00 0.00 56 1011.8
20260902002536 92 158 2.0 4.0 0.00 0.00 0.00 55 1011.8
20260902001537 93 158 2.0 5.0 0.00 0.00 0.00 53 1011.9
20260902000516 94 158 2.0 4.0 0.00 0.00 0.00 53 1012.1
20260901235516 94 158 2.0 7.0 0.00 0.00 0.00 51 1012.1
20260901234516 95 158 2.0 7.0 0.00 0.00 0.00 52 1012.2
20260901233516 95 158 2.0 6.0 0.00 0.00 0.00 50 1012.4
20260901232516 96 203 2.0 4.0 0.00 0.00 0.00 49 1012.4
20260901231516 96 203 3.0 5.0 0.00 0.00 0.00 48 1012.4
20260901230536 96 203 3.0 6.0 0.00 0.00 0.00 47 1012.4
20260901225516 96 158 3.0 7.0 0.00 0.00 0.00 47 1012.6
20260901224516 96 158 4.0 8.0 0.00 0.00 0.00 48 1012.6
20260901223516 96 203 3.0 8.0 0.00 0.00 0.00 48 1012.6
20260901222516 96 203 3.0 8.0 0.00 0.00 0.00 47 1012.6
20260901221536 96 203 4.0 12.0 0.00 0.00 0.00 46 1012.6
20260901220516 96 203 4.0 8.0 0.00 0.00 0.00 47 1012.9
20260901215516 96 203 4.0 8.0 0.00 0.00 0.00 47 1013.0
20260901214516 96 203 4.0 11.0 0.00 0.00 0.00 48 1013.0
20260901213536 96 203 4.0 9.0 0.00 0.00 0.00 50 1013.0
20260901212516 96 203 4.0 11.0 0.00 0.00 0.00 49 1013.1
20260901211516 95 203 4.0 5.0 0.00 0.00 0.00 50 1013.1
20260901210516 95 158 5.0 10.0 0.00 0.00 0.00 51 1013.2
20260901205516 95 158 4.0 10.0 0.00 0.00 0.00 52 1013.2
20260901204516 95 180 4.0 9.0 0.00 0.00 0.00 51 1013.4
20260901203516 95 203 4.0 12.0 0.00 0.00 0.00 53 1013.6
20260901202536 95 158 5.0 11.0 0.00 0.00 0.00 52 1013.6
20260901201516 95 203 4.0 7.0 0.00 0.00 0.00 52 1013.7
20260901200516 94 158 4.0 7.0 0.00 0.00 0.00 52 1013.9
20260901195536 94 158 4.0 11.0 0.00 0.00 0.00 52 1014.0
20260901194516 94 180 3.0 6.0 0.00 0.00 0.00 53 1014.0
20260901193516 94 203 3.0 7.0 0.00 0.00 0.00 52 1014.2
20260901192516 94 180 3.0 6.0 0.00 0.00 0.00 54 1014.4
20260901191516 94 158 3.0 8.0 0.00 0.00 0.00 53 1014.5
20260901190516 93 158 3.0 7.0 0.00 0.00 0.00 53 1014.4